OPS 1509 (TRANSIT 10)

Satellite information

Favourite Embed

Satellite Type and Status

PAYLOADIN ORBIT

Key statistics

Satellite OPS 1509 (TRANSIT 10) at a glance.

Uptime

21858

Days in orbit

Revolutions

≈ 13.8

Per day

Orbit

LEO

Low Earth Orbit

Inclination

89.1

Latest

Satellite identification and parameters

Extended collection of information and parameters for OPS 1509 (TRANSIT 10).

Object identification

Identified? True

Debris? False

Object name: OPS 1509 (TRANSIT 10)

International designator: 1965-109A

Object number (NORAD): 1864

Object ID (CCSDS): 1864

Country: UNITED STATES OF AMERICA (US)

Current information (Y/N): Y

RCS size: LARGE

Orbital parameters

Period: 104.426 minutes

Inclination: 89.0603 deg

SMA: 7345.671 km

Apoapsis: 1047.445 km

Periapsis: 887.628 km

RAAN: 258.4898 deg

Eccentricy: 0.01087828

Argument of periapsis: 204.0957 deg

Mean anomaly: 155.51 deg

Mean motion: 13.78972206 rev/day

Mean motion (dot): 0.00000208 rev/day2

B* drag term: 0.00018329378 1/REarth

Two-line elements (TLE)

Creation date: Oct. 26, 2025, 2:54 a.m.

Reference frame: TEME

Reference center: EARTH

Epoch: Oct. 25, 2025, 9:58 p.m. UTC

TLE line 0: 0 OPS 1509 (TRANSIT 10)

TLE line 1: 1 01864U 65109A 25298.91534864 .00000208 00000-0 18329-3 0 9992

TLE line 2: 2 01864 89.0603 258.4898 0108783 204.0957 155.5100 13.78972206 3819

Live tracking on map

Real-time ground track for satellite OPS 1509 (TRANSIT 10).

In-orbit conjunctions

There are no conjunctions computed for OPS 1509 (TRANSIT 10), at the moment. Check back to stay up to date, as we update our databases every day.

Go to all conjunctions

Associated space launch

The Transit-O series of satellites that closely followed the design of Transit 5C-1 were also called “Oscars” (Oscar is the phonetic alphabet for “O”, i. e., operational). They were also called NNS (Navy Navigation Satellite) or shortened NavSat.

OPS 1509 (TRANSIT 10) was lifted into orbit during the mission ‘Scout A | Transit-O 6’, on board a Scout A space rocket.

The launch took place on Dec. 22, 1965, 4:33 a.m. from Space Launch Complex 5.

For more information about the launch, click the button.

Launch to space Scout A | Transit-O 6
Scout A | Transit-O 6

Agency: N/A

Status: Launch Successful

Launch date: Dec. 22, 1965, 4:33 a.m. UTC

Rocket: Scout A

Launch pad: Space Launch Complex 5

Location: Vandenberg SFB, CA, USA

...

Latest news about this satellite

There are no fresh news available about this satellite. Check back as we update our databases every day.


Newsletter sign-up

Weekly statistics, charts and insights to help you stay on top of the space industry.